This is the latest recevied weather packets stored in our database for station/object JR4VEV-13. If no packets are shown the sender has not sent any weather packets the latest 10 day(s).
| Time | Temp. | Humidity | Pressure | Rain* | Wind** | Luminosity | Snow |
|---|---|---|---|---|---|---|---|
| 1777835088 | 13.89° C | 93% | 1003.5 hPa | 0 mm | - | - | - |
| 1777834489 | 14.44° C | 93% | 1003.4 hPa | 0 mm | - | - | - |
| 1777833888 | 14.44° C | 91% | 1003.3 hPa | 0 mm | - | - | - |
| 1777833288 | 15° C | 90% | 1002.9 hPa | 0 mm | - | - | - |
| 1777832689 | 15.56° C | 88% | 1002.6 hPa | 0 mm | - | - | - |
| 1777832089 | 15° C | 90% | 1002.7 hPa | 0 mm | - | - | - |
| 1777831489 | 15° C | 90% | 1002.6 hPa | 0 mm | - | - | - |
| 1777830888 | 15° C | 91% | 1002.8 hPa | 0 mm | - | - | - |
| 1777830290 | 15° C | 92% | 1002.6 hPa | 0 mm | - | - | - |
| 1777829689 | 15° C | 93% | 1002.4 hPa | 0 mm | - | - | - |
| 1777829089 | 15.56° C | 94% | 1002 hPa | 0 mm | - | - | - |
| 1777828489 | 15° C | 97% | 1002.3 hPa | 0 mm | - | - | - |
| 1777827889 | 15.56° C | 98% | 1002 hPa | 0 mm | - | - | - |
| 1777827289 | 15.56° C | 98% | 1002 hPa | 0 mm | - | - | - |
| 1777826688 | 15.56° C | 98% | 1002 hPa | 0 mm | - | - | - |
| 1777826088 | 15.56° C | 98% | 1001.9 hPa | 0 mm | - | - | - |
| 1777825490 | 15.56° C | 98% | 1001.7 hPa | 0 mm | - | - | - |
| 1777824889 | 15.56° C | 98% | 1001.7 hPa | 0 mm | - | - | - |
| 1777824289 | 15.56° C | 98% | 1001.5 hPa | 0 mm | - | - | - |
| 1777823689 | 15.56° C | 98% | 1001.5 hPa | 0 mm | - | - | - |
| 1777823089 | 15.56° C | 98% | 1001.3 hPa | 0 mm | - | - | - |
| 1777822489 | 16.11° C | 98% | 1001.3 hPa | 0 mm | - | - | - |
| 1777821890 | 16.11° C | 98% | 1001.2 hPa | 0 mm | - | - | - |
| 1777821288 | 16.11° C | 98% | 1001.4 hPa | 0 mm | - | - | - |
| 1777820688 | 16.11° C | 98% | 1001.2 hPa | 0 mm | - | - | - |
* Rain latest hour (hover to see other rain measurements)
** Current wind speed in m/s (hover to see current wind gust speed)